[[{"header":{"parameterUnit":"m.s-1","parameterCategory":1,"la1":30.2991,"la2":30.254,"lo1":-89.0895,"lo2":-89.0444,"dy":0.0017,"dx":0.0017,"nx":28,"ny":28,"refTime":"2025-08-15T21:00:00:Z","depth":0,"parameterNumber":2,"parameterNumberName":"U-component_of_WINDS"},"data":[0,0,0,0,0,0,0,0,0,0,0,0,0,0,0,0,0,0,0,0,0,0,0,0,0,0,0,0,0,0,0,0,0,0,0,0,0,0,0,0,0,0,0,0,0,0,0,0,0,0,0,0,0,0,0,0,0,0,-1.1673,-1.1672,0,-1.1587,-1.1586,-1.1585,-1.1564,-1.1564,-1.1565,-1.1565,-1.1477,-1.1474,-1.1471,0,0,0,0,0,0,0,0,0,0,0,0,0,-1.182,-1.1817,-1.1674,-1.1672,-1.1671,-1.1588,-1.1586,-1.1585,-1.1564,-1.1564,-1.1565,-1.1566,-1.1477,-1.1474,-1.1471,0,0,0,0,0,0,0,0,0,0,0,0,0,-1.1747,-1.1816,-1.1674,-1.1651,-1.1648,-1.1588,-1.1586,-1.1585,-1.1563,-1.1564,-1.1565,-1.1566,-1.1479,-1.1474,-1.147,-1.1427,0,0,-1.1457,-1.1455,0,0,0,0,0,0,0,0,-1.1751,-1.1742,-1.1655,-1.1652,-1.1649,-1.1587,-1.1605,-1.1532,-1.1563,-1.1595,-1.1565,-1.1566,-1.1513,-1.1506,-1.1488,-1.1423,-1.1419,-1.1457,-1.1454,-1.1452,-1.1451,0,0,0,0,0,0,0,-1.1756,-1.1745,-1.1639,-1.1654,-1.165,-1.1645,-1.1635,-1.1591,-1.155,-1.1593,-1.1591,-1.1581,-1.1511,-1.1492,-1.1485,-1.1418,-1.1457,-1.1453,-1.145,-1.1449,-1.1315,-1.1314,0,0,0,0,0,0,-1.1765,-1.175,-1.1642,-1.1637,-1.1703,-1.1641,-1.1631,-1.1606,-1.1551,-1.1543,-1.158,-1.158,-1.1499,-1.149,-1.1482,-1.1429,-1.1452,-1.1448,-1.1446,-1.1316,-1.1315,-1.1314,0,0,0,0,0,0,-1.1769,-1.1756,-1.1646,-1.1693,-1.1678,-1.1638,-1.161,-1.1604,-1.1585,-1.1542,-1.1534,-1.1568,-1.1499,-1.1488,-1.1441,-1.1426,-1.1446,-1.1442,-1.1317,-1.1316,-1.1314,-1.1322,0,0,0,0,0,0,-1.1773,-1.1757,-1.174,-1.1693,-1.1676,-1.1606,-1.1609,-1.1602,-1.1577,-1.1576,-1.1528,-1.1521,-1.1499,-1.1448,-1.1437,-1.142,-1.1439,-1.1319,-1.1317,-1.1315,-1.1323,-1.1321,-1.1319,0,0,0,0,0,-1.1778,-1.1745,-1.1739,-1.1727,-1.1654,-1.1605,-1.1596,-1.1571,-1.1576,-1.1559,-1.1532,-1.1523,-1.1429,-1.1443,-1.1431,-1.1412,-1.1319,-1.1317,-1.1315,-1.1324,-1.1321,-1.1319,0,0,0,0,0,0,-1.1791,-1.1738,-1.1731,-1.1682,-1.1648,-1.1602,-1.1579,-1.1569,-1.1533,-1.1533,-1.1504,-1.1494,-1.1449,-1.1426,-1.1443,-1.1369,-1.1374,-1.137,-1.1385,-1.1382,-1.1381,-1.1387,-1.1435,0,0,0,0,0,-1.1789,-1.1754,-1.1709,-1.167,-1.1654,-1.1619,-1.1597,-1.1581,-1.1545,-1.1531,-1.15,-1.1465,-1.1428,-1.1404,-1.1367,-1.132,-1.1309,-1.1301,-1.1299,-1.1298,-1.1294,-1.1268,-1.1264,-1.1307,-1.1307,-1.1307,0,0,-1.1782,-1.1749,-1.1729,-1.1672,-1.1644,-1.1609,-1.1607,-1.157,-1.1543,-1.1525,-1.1479,-1.1455,-1.1415,-1.1368,-1.1345,-1.1347,-1.128,-1.1295,-1.1294,-1.1291,-1.1266,-1.1262,-1.1258,-1.1305,-1.1306,-1.1306,0,0,-1.1753,-1.1724,-1.1689,-1.1661,-1.1619,-1.1597,-1.1589,-1.1543,-1.1527,-1.1481,-1.1467,-1.1435,-1.1372,-1.1344,-1.1321,-1.1283,-1.1274,-1.1272,-1.1262,-1.1238,-1.1235,-1.1231,-1.1219,-1.1214,-1.1269,-1.1269,-1.1269,0,-1.175,-1.1696,-1.1672,-1.1635,-1.1611,-1.1594,-1.1558,-1.1532,-1.148,-1.1464,-1.1467,-1.1388,-1.1359,-1.1306,-1.1297,-1.1279,-1.127,-1.1277,-1.1237,-1.1234,-1.123,-1.1218,-1.1213,-1.1269,-1.1269,-1.1269,-1.1269,0,-1.1696,-1.1659,-1.1635,-1.1586,-1.156,-1.1524,-1.1494,-1.147,-1.1457,-1.1435,-1.1389,-1.1354,-1.1311,-1.1297,-1.1284,-1.1242,-1.1245,-1.1243,-1.1248,-1.1227,-1.1215,-1.121,-1.1269,-1.1269,-1.1269,-1.1269,0,0,-1.167,-1.161,-1.1602,-1.158,-1.1533,-1.1504,-1.1468,-1.1427,-1.1407,-1.1372,-1.1342,-1.1289,-1.1288,-1.1262,-1.1246,-1.1224,-1.1198,-1.1225,-1.1223,-1.1221,-1.1151,-1.1153,-1.1148,-1.1192,-1.1191,-1.119,-1.1155,0,-1.1635,-1.157,-1.1548,-1.1494,-1.146,-1.1444,-1.1413,-1.1382,-1.136,-1.1329,-1.1305,-1.1269,-1.1269,-1.1254,-1.1232,-1.1206,-1.1183,-1.1208,-1.1163,-1.1162,-1.1174,-1.1141,-1.1143,-1.1112,-1.115,-1.1149,-1.1148,0,-1.1585,-1.1551,-1.1494,-1.1453,-1.1438,-1.141,-1.1371,-1.1341,-1.1305,-1.1292,-1.1264,-1.125,-1.1212,-1.122,-1.1169,-1.1186,-1.1167,-1.1151,-1.1149,-1.1144,-1.1154,-1.1136,-1.1101,-1.1097,-1.1141,-1.1141,-1.1142,0,-1.1574,-1.1513,-1.1472,-1.1453,-1.1404,-1.1385,-1.1364,-1.1329,-1.1306,-1.1272,-1.1257,-1.1219,-1.1198,-1.1169,-1.1145,-1.1153,-1.1096,-1.1102,-1.1084,-1.1085,-1.1072,-1.1073,-1.1034,-1.106,-1.106,-1.106,-1.106,0,-1.1537,-1.1503,-1.1466,-1.144,-1.1402,-1.1377,-1.134,-1.1318,-1.1288,-1.1258,-1.1242,-1.1214,-1.1184,-1.1153,-1.1134,-1.1095,-1.1085,-1.1074,-1.1069,-1.1075,-1.1077,-1.1062,-1.1063,-1.1059,-1.1059,-1.1059,-1.1059,0,-1.1517,-1.149,-1.1444,-1.1402,-1.1391,-1.1365,-1.1329,-1.1304,-1.1283,-1.1246,-1.1236,-1.1202,-1.1165,-1.1138,-1.109,-1.1077,-1.1035,-1.1031,-1.1047,-1.1045,-1.1029,-1.1031,-1.0979,-1.0971,-1.1002,-1.1002,-1.1001,0,-1.1495,-1.1468,-1.1424,-1.1403,-1.1382,-1.1349,-1.1326,-1.1301,-1.1277,-1.1236,-1.1216,-1.1178,-1.1146,-1.1087,-1.1059,-1.1022,-1.1017,-1.1001,-1.1011,-1.1018,-1.1017,-1.1019,-1.1017,-1.0999,-1.0999,-1.0999,-1.0999,0,-1.1459,-1.1448,-1.1415,-1.1378,-1.1351,-1.1321,-1.129,-1.1274,-1.1244,-1.1219,-1.1181,-1.1156,-1.1108,-1.107,-1.1031,-1.101,-1.1,-1.0996,-1.099,-1.0996,-1.1007,-1.1002,-1.1044,-1.0997,-1.0998,-1.0998,-1.0998,-1.0998,-1.1437,-1.1414,-1.1379,-1.1344,-1.1319,-1.1291,-1.1266,-1.1242,-1.121,-1.1169,-1.1156,-1.1117,-1.1084,-1.1031,-1.1009,-1.0978,-1.0979,-1.097,-1.0968,-1.0966,-1.0967,-1.1012,-1.0971,-1.0971,-1.0971,-1.0971,-1.0971,0,-1.1401,-1.1379,-1.1346,-1.1305,-1.1277,-1.1271,-1.1237,-1.1215,-1.1181,-1.115,-1.112,-1.1077,-1.1041,-1.1011,-1.0974,-1.0955,-1.095,-1.0946,-1.0947,-1.0943,-1.0968,-1.0977,-1.0952,-1.0952,-1.0952,-1.0952,-1.0952,-1.0952,-1.1379,-1.1339,-1.1324,-1.1272,-1.125,-1.1212,-1.1194,-1.1168,-1.1144,-1.1097,-1.1068,-1.1048,-1.1018,-1.0979,-1.0947,-1.0939,-1.0926,-1.0924,-1.0915,-1.0939,-1.0941,-1.0943,-1.0952,-1.0921,-1.0921,-1.0893,-1.0892,-1.0892]},{"header":{"parameterUnit":"m.s-1","parameterCategory":1,"la1":30.2991,"la2":30.254,"lo1":-89.0895,"lo2":-89.0444,"dy":0.0017,"dx":0.0017,"nx":28,"ny":28,"refTime":"2025-08-15T21:00:00:Z","depth":0,"parameterNumber":3,"parameterNumberName":"V-component_of_WINDS"},"data":[0,0,0,0,0,0,0,0,0,0,0,0,0,0,0,0,0,0,0,0,0,0,0,0,0,0,0,0,0,0,0,0,0,0,0,0,0,0,0,0,0,0,0,0,0,0,0,0,0,0,0,0,0,0,0,0,0,0,0.5794,0.5794,0,0.5836,0.5836,0.5837,0.5824,0.5823,0.5822,0.5822,0.5862,0.5864,0.5866,0,0,0,0,0,0,0,0,0,0,0,0,0,0.5697,0.5699,0.5793,0.5794,0.5795,0.5836,0.5836,0.5837,0.5824,0.5823,0.5822,0.5821,0.5861,0.5863,0.5866,0,0,0,0,0,0,0,0,0,0,0,0,0,0.5739,0.57,0.5793,0.5793,0.5794,0.5836,0.5836,0.5837,0.5825,0.5823,0.5822,0.5821,0.586,0.5863,0.5866,0.591,0,0,0.5875,0.5876,0,0,0,0,0,0,0,0,0.5737,0.5743,0.5793,0.5793,0.5794,0.5823,0.5817,0.5861,0.5825,0.5813,0.5822,0.582,0.585,0.5854,0.5864,0.5911,0.5913,0.5875,0.5877,0.5878,0.5879,0,0,0,0,0,0,0,0.5734,0.5741,0.581,0.5794,0.5794,0.579,0.5794,0.5825,0.5838,0.5814,0.5813,0.5818,0.585,0.5862,0.5865,0.5914,0.5875,0.5877,0.5879,0.588,0.5995,0.5996,0,0,0,0,0,0,0.5731,0.5738,0.5809,0.5811,0.5762,0.5792,0.5797,0.5815,0.5838,0.584,0.5819,0.5818,0.5857,0.5862,0.5866,0.5916,0.5878,0.588,0.5882,0.5993,0.5995,0.5997,0,0,0,0,0,0,0.5729,0.5737,0.5807,0.5775,0.5783,0.5796,0.5816,0.5817,0.5828,0.5842,0.5844,0.5829,0.5857,0.5862,0.5898,0.5917,0.5882,0.5884,0.5992,0.5994,0.5996,0.6017,0,0,0,0,0,0,0.5726,0.5737,0.5755,0.5775,0.5785,0.584,0.5817,0.5819,0.5834,0.5832,0.5852,0.5854,0.5856,0.5894,0.5901,0.5921,0.5886,0.599,0.5993,0.5995,0.6015,0.602,0.6024,0,0,0,0,0,0.5723,0.5759,0.5756,0.5764,0.5808,0.5841,0.5846,0.5849,0.5835,0.5852,0.5861,0.5853,0.5915,0.5898,0.5906,0.5926,0.5989,0.5992,0.5995,0.6013,0.6019,0.6024,0,0,0,0,0,0,0.574,0.5762,0.5758,0.5803,0.582,0.5839,0.586,0.5856,0.5877,0.5874,0.5876,0.588,0.5916,0.5925,0.5906,0.5968,0.5949,0.5954,0.596,0.5966,0.5971,0.5967,0.5889,0,0,0,0,0,0.5749,0.5776,0.5793,0.583,0.5839,0.5848,0.5863,0.5863,0.5881,0.5888,0.5899,0.5915,0.5938,0.5953,0.5975,0.6017,0.6019,0.6034,0.6039,0.6043,0.6046,0.6065,0.6071,0.6007,0.6007,0.6007,0,0,0.5768,0.5783,0.5799,0.5834,0.5847,0.5872,0.5854,0.5883,0.59,0.5892,0.5926,0.5934,0.5953,0.5991,0.6008,0.5999,0.6065,0.6047,0.6049,0.6051,0.6069,0.6075,0.6081,0.6009,0.6008,0.6008,0,0,0.5814,0.583,0.5861,0.5875,0.5895,0.5901,0.5908,0.5928,0.5933,0.5967,0.596,0.5981,0.6021,0.6034,0.6045,0.6094,0.6086,0.6101,0.6124,0.6143,0.6148,0.6152,0.6167,0.6172,0.6105,0.6105,0.6105,0,0.5834,0.5873,0.5877,0.5905,0.5919,0.5913,0.5943,0.5956,0.5982,0.5991,0.5982,0.603,0.6042,0.6081,0.6093,0.6103,0.611,0.6098,0.6147,0.6152,0.6156,0.617,0.6175,0.6106,0.6106,0.6106,0.6106,0,0.5895,0.5922,0.5945,0.597,0.5987,0.6016,0.6022,0.6038,0.6037,0.6043,0.6077,0.6091,0.6114,0.6124,0.6123,0.6162,0.6156,0.6147,0.6128,0.6163,0.6176,0.6182,0.6108,0.6108,0.6107,0.6107,0,0,0.5953,0.598,0.5987,0.5998,0.6019,0.6039,0.6067,0.609,0.6103,0.6121,0.6142,0.6175,0.6166,0.6179,0.618,0.6197,0.6231,0.6185,0.6186,0.6191,0.6271,0.6276,0.6282,0.6227,0.6228,0.6229,0.6269,0,0.5998,0.6048,0.6051,0.6095,0.6118,0.6112,0.6135,0.615,0.6156,0.6176,0.6182,0.6204,0.6193,0.62,0.6217,0.6223,0.6247,0.6221,0.6244,0.6245,0.6237,0.629,0.6295,0.6332,0.6274,0.6275,0.6276,0,0.6058,0.6078,0.6124,0.614,0.615,0.6171,0.6191,0.6211,0.6226,0.6229,0.6243,0.6241,0.6267,0.6249,0.6283,0.6265,0.6275,0.628,0.6281,0.6282,0.6261,0.6288,0.6344,0.6349,0.6284,0.6283,0.6283,0,0.6092,0.613,0.6161,0.6171,0.6192,0.6206,0.6215,0.623,0.6243,0.626,0.6268,0.6288,0.6299,0.6313,0.6316,0.6303,0.6349,0.6332,0.635,0.635,0.6358,0.6357,0.6413,0.6369,0.6369,0.6369,0.6369,0,0.614,0.6168,0.6176,0.6196,0.6225,0.6229,0.6258,0.6265,0.6278,0.6297,0.6294,0.6312,0.6315,0.6333,0.6335,0.6361,0.6367,0.6368,0.6368,0.6367,0.6366,0.6372,0.6368,0.637,0.637,0.637,0.6369,0,0.6182,0.6189,0.6223,0.6239,0.6244,0.6265,0.6278,0.6295,0.6301,0.6325,0.6331,0.6339,0.636,0.6364,0.6389,0.639,0.642,0.6419,0.6415,0.6414,0.6431,0.6428,0.649,0.6498,0.6451,0.6451,0.6452,0,0.6211,0.6232,0.6251,0.6264,0.6273,0.6294,0.6307,0.6311,0.6324,0.6342,0.6357,0.6377,0.6394,0.6427,0.6434,0.6452,0.6449,0.647,0.6452,0.645,0.6446,0.6444,0.6445,0.6473,0.6473,0.6473,0.6474,0,0.6262,0.6264,0.6283,0.6303,0.6319,0.6335,0.635,0.636,0.6365,0.638,0.6402,0.6414,0.6439,0.6458,0.6476,0.6484,0.6479,0.648,0.6484,0.6482,0.6478,0.6478,0.6421,0.6478,0.6477,0.6477,0.6477,0.6477,0.6296,0.6313,0.6328,0.6349,0.6361,0.6375,0.6391,0.6399,0.6417,0.6437,0.6438,0.6461,0.6474,0.6497,0.6506,0.6522,0.6516,0.6523,0.6525,0.6526,0.6526,0.6478,0.6526,0.6526,0.6526,0.6526,0.6526,0,0.6344,0.6353,0.6372,0.6393,0.6409,0.6405,0.642,0.6433,0.6453,0.6467,0.6483,0.6506,0.6524,0.6533,0.655,0.6562,0.656,0.6566,0.6564,0.6565,0.6532,0.6525,0.6567,0.6567,0.6567,0.6567,0.6567,0.6567,0.637,0.6398,0.6402,0.6434,0.6443,0.6466,0.6475,0.6486,0.6497,0.6523,0.6538,0.6544,0.6555,0.6573,0.6589,0.6591,0.6596,0.6603,0.6604,0.6572,0.6568,0.6564,0.6557,0.6605,0.6605,0.6635,0.6635,0.6636]}]]